Weather History for KSDB - April, 2014

Change the Weather History Date:

Monday, April 28, 2014

  Actual Average Record
Temperature  
Mean Temperature 51 °F 53 °F  
Max Temperature 61 °F 62 °F 86 °F (2007)
Min Temperature 40 °F 45 °F 24 °F (1970)
Degree Days  
Heating Degree Days 14 12  
Month to date heating degree days 262 422  
Since 1 July heating degree days 2389 3751  
Cooling Degree Days 0 0  
Month to date cooling degree days 21 0  
Year to date cooling degree days 31 1  
Moisture  
Dew Point 35 °F    
Average Humidity 62    
Maximum Humidity 86    
Minimum Humidity 37    
Precipitation  
Precipitation 0.00 in 0.01 in 0.76 in (2005)
Month to date precipitation 0.36 0.60  
Year to date precipitation 3.58 7.98  
Since 1 July precipitation 4.36  
Sea Level Pressure  
Sea Level Pressure 30.06 in    
Wind  
Wind Speed 18 mph (North)    
Max Wind Speed 39 mph    
Max Gust Speed 47 mph    
Visibility 9 miles    
Events      
T = Trace of Precipitation, MM = Missing Value Source: NWS Daily Summary

Daily Weather History Graph

Daily Weather History Graph

Search for Another Location

Airport or City:

Trip Planner

Search our weather history database for the weather conditions in past years. The results will help you decide how hot, cold, wet, or windy it might be!

Date:

Astronomy

Apr. 28, 2014 Rise Set
Actual Time 6:07 AM PDT 7:37 PM PDT
Civil Twilight 5:40 AM PDT 8:04 PM PDT
Nautical Twilight 5:08 AM PDT 8:36 PM PDT
Astronomical Twilight 4:35 AM PDT 9:10 PM PDT
Moon 5:46 AM PDT (4/28) 7:21 PM PDT (4/28)
Length of Visible Light 14h 23m
Length of Day
13h 30m
Waning Crescent, 0% of the Moon is Illuminated
Apr 28
Waning Crescent
Apr 28
New
May 6
First Quarter
May 14
Full
May 21
Last Quarter

Hourly Weather History & Observations

Time (PDT) Temp. Windchill Dew Point Humidity Pressure Visibility Wind Dir Wind Speed Gust Speed Precip Events Conditions
12:16 AM 46.9 °F - 34.0 °F 61% 30.11 in 10.0 mi NNW 6.9 mph - N/A   Overcast
12:48 AM 48.0 °F - 33.1 °F 56% 30.04 in 10.0 mi North 5.8 mph - N/A   Overcast
1:48 AM 48.0 °F - 33.1 °F 56% 30.01 in 10.0 mi NNW 9.2 mph - N/A   Overcast
2:48 AM 48.0 °F - 33.1 °F 56% 30.01 in 10.0 mi North 10.4 mph 18.4 mph N/A   Overcast
3:48 AM 43.0 °F 37.7 °F 37.0 °F 80% 30.01 in 10.0 mi North 9.2 mph 26.5 mph N/A   Overcast
3:59 AM 43.0 °F 38.2 °F 37.0 °F 80% 30.09 in 10.0 mi North 8.1 mph - N/A   Overcast
4:17 AM 43.0 °F 39.5 °F 37.9 °F 82% 30.09 in 9.0 mi Variable 5.8 mph 24.2 mph N/A   Overcast
4:48 AM 43.0 °F 37.7 °F 37.9 °F 82% 30.01 in 8.0 mi North 9.2 mph 23.0 mph N/A   Overcast
5:48 AM 42.1 °F 33.9 °F 37.0 °F 82% 30.03 in 8.0 mi North 17.3 mph 23.0 mph N/A   Overcast
6:20 AM 41.0 °F 31.1 °F 37.0 °F 86% 30.10 in 5.0 mi North 23.0 mph - N/A   Mostly Cloudy
6:48 AM 41.0 °F 30.5 °F 37.0 °F 86% 30.05 in 3.0 mi NNW 26.5 mph - N/A   Mostly Cloudy
7:12 AM 39.9 °F 29.0 °F 36.0 °F 86% 30.11 in 6.0 mi NNW 26.5 mph - N/A   Scattered Clouds
7:48 AM 42.1 °F 33.6 °F 35.1 °F 76% 30.08 in 10.0 mi NNW 18.4 mph 25.3 mph N/A   Clear
8:48 AM 48.0 °F - 36.0 °F 63% 30.07 in 10.0 mi NNE 11.5 mph 18.4 mph N/A   Clear
10:48 AM 55.0 °F - 36.0 °F 49% 30.07 in 10.0 mi NNW 19.6 mph 27.6 mph N/A   Clear
11:48 AM 57.0 °F - 34.0 °F 42% 30.08 in 10.0 mi North 15.0 mph 21.9 mph N/A   Clear
12:48 PM 57.9 °F - 33.1 °F 39% 30.07 in 10.0 mi NNW 12.7 mph - N/A   Clear
1:48 PM 57.9 °F - 34.0 °F 41% 30.06 in 10.0 mi NNW 26.5 mph 33.4 mph N/A   Clear
2:48 PM 59.0 °F - 34.0 °F 39% 30.06 in 10.0 mi North 23.0 mph 32.2 mph N/A   Clear
3:48 PM 59.0 °F - 35.1 °F 41% 30.05 in 10.0 mi NNW 26.5 mph 35.7 mph N/A   Clear
4:48 PM 57.9 °F - 34.0 °F 41% 30.04 in 10.0 mi NNW 24.2 mph 32.2 mph N/A   Clear
5:48 PM 55.9 °F - 36.0 °F 47% 30.04 in 10.0 mi NNW 25.3 mph 44.9 mph N/A   Clear
6:48 PM 54.0 °F - 36.0 °F 51% 30.07 in 10.0 mi NNE 9.2 mph 24.2 mph N/A   Clear
7:48 PM 51.1 °F - 36.0 °F 56% 30.08 in 10.0 mi North 17.3 mph 25.3 mph N/A   Clear
8:48 PM 50.0 °F - 35.1 °F 57% 30.09 in 10.0 mi North 12.7 mph 25.3 mph N/A   Clear
9:48 PM 51.1 °F - 34.0 °F 52% 30.09 in 10.0 mi NNW 26.5 mph 32.2 mph N/A   Clear
10:48 PM 52.0 °F - 32.0 °F 47% 30.10 in 10.0 mi NNW 17.3 mph - N/A   Clear
11:48 PM 52.0 °F - 30.9 °F 45% 30.11 in 10.0 mi NNW 17.3 mph - N/A   Clear